Weather History for Zanesville, OH

Change the Weather History Date:

Wednesday, June 20, 2012

  Actual Average Record
Temperature  
Mean Temperature 79 °F 70 °F  
Max Temperature 92 °F 82 °F 94 °F (1953)
Min Temperature 65 °F 59 °F 45 °F (1947)
Degree Days  
Heating Degree Days 0 1  
Month to date heating degree days 23 30  
Since 1 June heating degree days 23 30  
Since 1 July heating degree days 4591 5569  
Cooling Degree Days 14 6  
Month to date cooling degree days 93 89  
Year to date cooling degree days 237 143  
Since 1 June cooling degree days 93 89  
Growing Degree Days 28 (Base 50)    
Moisture  
Dew Point 66 °F    
Average Humidity 66    
Maximum Humidity 93    
Minimum Humidity 38    
Precipitation  
Precipitation 0.00 in 0.14 in 0.79 in (1964)
Month to date precipitation 2.08 2.66  
Year to date precipitation 15.08 18.12  
Sea Level Pressure  
Sea Level Pressure 30.11 in    
Wind  
Wind Speed 2 mph (SSW)    
Max Wind Speed 10 mph    
Max Gust Speed 14 mph    
Visibility 9 miles    
Events      
T = Trace of Precipitation, MM = Missing Value Source: NWS Daily Summary

Daily Weather History Graph

Daily Weather History Graph

Search for Another Location

Airport:

Trip Planner

Search our weather history database for the weather conditions in past years. The results will help you decide how hot, cold, wet, or windy it might be!

Date:

Astronomy

Jun. 20, 2012 Rise Set
Actual Time 5:58 AM EDT 8:59 PM EDT
Civil Twilight 5:26 AM EDT 9:32 PM EDT
Nautical Twilight 4:44 AM EDT 10:14 PM EDT
Astronomical Twilight 3:55 AM EDT 11:02 PM EDT
Moon 6:57 AM EDT 9:44 PM EDT
Length of Visible Light 16h 06m
Length of Day
15h 00m
New Moon, 1% of the Moon is Illuminated
Jun 20
New Moon
Jun 26
First Quarter
Jul 3
Full
Jul 10
Last Quarter
Jul 19
New

Hourly Weather History & Observations

Time (EDT) Temp. Heat Index Dew Point Humidity Pressure Visibility Wind Dir Wind Speed Gust Speed Precip Events Conditions
12:53 AM 70.0 °F - 66.9 °F 90% 30.12 in 8.0 mi Calm Calm - N/A   Clear
1:53 AM 69.1 °F - 66.0 °F 90% 30.11 in 8.0 mi SSW 3.5 mph - N/A   Clear
2:53 AM 66.9 °F - 64.9 °F 93% 30.10 in 6.0 mi Calm Calm - N/A   Clear
3:53 AM 66.9 °F - 64.9 °F 93% 30.11 in 7.0 mi Calm Calm - N/A   Clear
4:53 AM 66.0 °F - 64.0 °F 93% 30.12 in 8.0 mi Calm Calm - N/A   Clear
5:53 AM 64.9 °F - 63.0 °F 93% 30.14 in 7.0 mi Calm Calm - N/A   Clear
6:53 AM 66.0 °F - 64.0 °F 93% 30.15 in 6.0 mi Calm Calm - N/A   Clear
7:53 AM 70.0 °F - 64.9 °F 84% 30.17 in 9.0 mi Calm Calm - N/A   Clear
8:53 AM 75.0 °F - 66.9 °F 76% 30.17 in 10.0 mi Calm Calm - N/A   Clear
9:53 AM 80.1 °F 82.9 °F 69.1 °F 69% 30.17 in 10.0 mi Calm Calm - N/A   Clear
10:53 AM 84.9 °F 87.6 °F 66.9 °F 55% 30.17 in 10.0 mi Calm Calm - N/A   Clear
11:53 AM 86.0 °F 88.2 °F 66.0 °F 51% 30.16 in 10.0 mi Calm Calm - N/A   Clear
12:53 PM 89.6 °F 91.1 °F 64.4 °F 43% 30.17 in 10.0 mi Variable 5.8 mph - N/A   Scattered Clouds
1:53 PM 89.1 °F 90.0 °F 63.0 °F 42% 30.13 in 10.0 mi Variable 3.5 mph - N/A   Clear
2:53 PM 89.1 °F 89.0 °F 61.0 °F 39% 30.11 in 10.0 mi WSW 3.5 mph - N/A   Partly Cloudy
3:53 PM 91.9 °F 94.1 °F 64.9 °F 41% 30.09 in 10.0 mi SSW 9.2 mph - N/A   Partly Cloudy
4:53 PM 91.0 °F 91.9 °F 63.0 °F 39% 30.07 in 10.0 mi Variable 5.8 mph - N/A   Partly Cloudy
5:53 PM 90.0 °F 91.7 °F 64.9 °F 43% 30.06 in 10.0 mi Variable 5.8 mph - N/A   Clear
6:53 PM 89.1 °F 91.0 °F 64.9 °F 45% 30.05 in 10.0 mi SSW 5.8 mph - N/A   Clear
7:53 PM 87.1 °F 88.9 °F 64.9 °F 48% 30.04 in 10.0 mi SSW 3.5 mph - N/A   Clear
8:53 PM 84.0 °F 86.5 °F 66.9 °F 56% 30.03 in 10.0 mi SSW 3.5 mph - N/A   Clear
9:53 PM 79.0 °F - 68.0 °F 69% 30.04 in 10.0 mi Calm Calm - N/A   Clear
10:53 PM 73.9 °F - 70.0 °F 87% 30.04 in 8.0 mi Calm Calm - N/A   Clear
11:53 PM 73.0 °F - 69.1 °F 87% 30.03 in 7.0 mi Calm Calm - N/A   Clear